Погода в Италмасе

Россия / Удмуртская Республика     56°54′57″N   53°28′33″E
темп.,
°C
ветер,
м/с
пор.,
м/с
влажн.,
%
обл.,
%
осадки,
мм/ч
давл.,
гПа
погр.,
м
17 апреля, сб
сб1701:00+2св410670 0.0 1028249
04:000ссв39735 0.0 1029179
07:00+2св410605 0.0 1029314
10:00+7св57445 0.0 1028867
13:00+10св45415 0.0 10271209
16:00+10ссв34439 0.0 10261358
19:00+8с22585 0.0 102515
22:00+5ссз22715 0.0 102523
18 апреля, вс
вс1801:00+3ссз22770 0.0 102435
04:00+2сз36835 0.0 1024104
07:00+4ссз310765 0.0 1023292
10:00+6св6768100 0.0 10251098
13:00+6св67372 0.0 10261497
16:00+6св78375 0.0 10281645
19:00+4св5104775 0.0 1028750
22:00+1всв511525 0.0 1031616
19 апреля, пн
пн1901:00−1всв411555 0.0 1032456
04:00−2всв410593 0.0 1034387
07:000всв510450 0.0 1035826
10:00+3в69280 0.0 10351518
13:00+5в67260 0.0 10351722
16:00+6в57270 0.0 10341748
19:00+3в37400 0.0 1035219
22:000в37520 0.0 1036118
20 апреля, вт
вт2001:00−1всв24540 0.0 103784
04:00−1в23540 0.0 103764
07:00+1вюв23450 0.0 1038184
10:00+5юв23300 0.0 10381046
13:00+7юв22280 0.0 10371306
16:00+8в22280 0.0 10351166
19:00+5всв11410 0.0 103410
22:00+2вюв22500 0.0 103417
21 апреля, ср
ср2101:00+1ююв11553 0.0 103510
04:00+1юв22555 0.0 103522
07:00+3юв36505 0.0 1035179
10:00+8ююв4735100 0.0 1033837
13:00+11ююв573048 0.0 10321204
16:00+12ю682812 0.0 10311403
19:00+9ююв41140100 0.0 1030371
22:00+6ююв41350100 0.0 1030341